Regional Weather Roundup
Issued by NWS Bismarck, ND

Home | Current Version | Previous Version | Text Only | Print | Product List | Glossary Off
Versions: 1 2 3 4 5 6 7 8 9 10 11 12 13 14 15 16 17 18 19 20 21 22 23 24 25 26 27 28 29 30 31 32 33 34 35 36 37 38 39 40 41 42 43 44 45 46 47 48 49 50

000
ASUS43 KBIS 270802
RWRBIS

NWR BROADCAST TEXT
NATIONAL WEATHER SERVICE BISMARCK ND
300 AM CDT WED JUL 27 2016

NOTE: "FAIR" INDICATES FEW OR NO CLOUDS BELOW 12,000 FEET WITH NO
SIGNIFICANT WEATHER AND/OR OBSTRUCTIONS TO VISIBILITY.


CITY           SKY/WX    TMP DP  RH WIND       PRES   REMARKS
WILLISTON      CLEAR     63  54  72 CALM      30.10R
MINOT          MOCLDY    65  62  90 N6        30.09R
MINOT AFB      PTCLDY    65  61  87 E7        30.09R
BISMARCK       CLOUDY    63  60  90 N5        30.06R
DICKINSON      MOCLDY    54  53  97 CALM      30.10S
GARRISON         N/A     60  59  96 N3        30.09R
HETTINGER ARPT CLEAR     62  58  86 NE6       30.11R
JAMESTOWN      MOCLDY    63  61  93 NE5       30.02R
CARRINGTON     FAIR      63  63 100 N5        30.07R
HAZEN          CLOUDY    59  59 100 CALM      30.11R
OAKES            N/A    N/A N/A N/A MISG        N/A
STANLEY        FAIR      57  57 100 NE5       30.13R
$$

CITY           SKY/WX    TMP DP  RH WIND       PRES   REMARKS
GRAND FORKS    CLOUDY    66  62  87 N8        30.00F
GRAND FORKS AF CLOUDY    65  62  89 NE8       30.01F
DEVILS LAKE    CLOUDY    64  61  90 NE9       30.06S
FARGO          CLOUDY    67  65  93 N6        29.97R
CAVALIER       FAIR      61  59  94 N6        30.06R
GRAFTON        FAIR      64  61  88 N6        30.05S
GWINNER        PTSUNNY   66  66 100 N6        30.01S
LANGDON        CLOUDY    61  59  94 NE10      30.08F
ROLLA          CLOUDY    59  55  88 N6        30.12R
$$

CITY           SKY/WX    TMP DP  RH WIND       PRES   REMARKS
ABERDEEN       CLOUDY    68  62  81 NE14      29.97S
MOBRIDGE       CLOUDY    67  63  87 CALM      29.99R
RAPID CITY     CLEAR     64  59  83 NW15      30.08F
GLASGOW        LGT RAIN  61  59  93 E8        30.06F
SIDNEY         CLOUDY    61  58  90 N3        30.10R
WOLF POINT     CLOUDY    68  59  73 W18G26    30.13R
GLENDIVE       CLOUDY    65  59  81 E10       30.10R
MILES CITY     LGT RAIN  70  58  65 E13       30.04F
BAKER          CLOUDY    60  55  83 E10       30.11F
$$

CITY           SKY/WX    TMP DP  RH WIND       PRES   REMARKS
BILLINGS       MOCLDY    66  54  65 N10       30.11F
GREAT FALLS    CLEAR     55  53  93 W8        30.14F
$$





USA.gov is the U.S. government's official web portal to all federal, state and local government web resources and services.